Location: Ferchesar
(52.6477°N, 12.4298°E)
Time: 06:21:34
(UTC+02:00)

Transit 4A - Pass Details

Date: 04 March 2021
Orbit: 869 x 976 km, 66.8° (Epoch: 12 April)

Event Time Altitude Azimuth Distance (km) Brightness Sun altitude
Rises 10:33:35 0° 207° (SSW) 3,659 11.4 26.7°
Reaches altitude 10° 10:36:10 10° 204° (SSW) 2,710 10.9 26.9°
Maximum altitude 10:42:27 68° 124° (ESE) 1,030 9.0 27.4°
Drops below altitude 10° 10:48:38 10° 42° (NE) 2,670 10.2 27.8°
Sets 10:51:10 0° 40° (NE) 3,603 10.8 28.0°
